Location: Newark
(50.4348°N, 30.5552°E)
Time: 03:19:55
(UTC+00:00)

Altair - Pass Details

Date: 23 January 2020
Orbit: 1502 x 1682 km, 47.2° (Epoch: 16 February)

Event Time Altitude Azimuth Distance (km) Brightness Sun altitude
Rises 10:46:15 0° 273° (W) 4,934 10.2 19.6°
Reaches altitude 10° 10:49:26 10° 271° (W) 3,948 9.8 19.5°
Maximum altitude 10:59:32 72° 191° (S) 1,742 8.5 19.2°
Drops below altitude 10° 11:09:27 10° 109° (ESE) 3,875 9.7 18.8°
Sets 11:12:32 0° 108° (ESE) 4,840 10.1 18.7°
